Volver al catálogo

GORIZONT 18

ActivoComunicacionesGEO
NORAD 20107·PAYLOAD·🇷🇺 Russia

Lanzado Jul 5, 1989 desde Baikonur Cosmodrome

Loading…

TLE

ActualizadoSource: Space-Track

Época: Sep 14, 2026, 10:57 UTC

1 20107U 89052A   26257.45654963  .00000057  00000-0  00000-0 0  9990
2 20107  12.2971 333.8784 0036416 348.6556  49.8556  0.99400850135301

Sigue GORIZONT 18 en tiempo real con AllMySat

Download on the App Store